1508245200.18,23058,19.88,74820.3,20.21,-28.75,-30.83,0,*40
1508245201.44,23059,19.88,74822.3,20.21,-29.45,-31.23,0,*48
1508245202.7,23060,19.88,74820.5,20.21,-29.35,-31.29,0,*4F
1508245203.93,23061,19.88,74820.5,20.23,-29.29,-31.17,0,*4C
1508245205.19,23062,19.88,74820.8,20.21,-29.01,-31.01,0,*40
1508245206.44,23063,19.88,74820.0,20.21,-28.15,-30.17,0,*43
1508245207.67,23064,19.88,74818.8,20.21,-29.61,-31.45,0,*40
1508245208.96,23065,19.88,74822.0,20.17,-29.89,-31.85,0,*4E
1508245210.19,23066,19.88,74818.0,20.15,-29.01,-31.05,0,*47
1508245211.43,23067,19.88,74818.3,20.15,-29.01,-31.05,0,*46
1508245212.7,23068,19.88,74822.8,20.15,-28.79,-30.73,0,*47
1508245213.91,23069,19.88,74822.8,20.15,-28.53,-30.45,0,*4B
1508245215.12,23070,19.88,74818.8,20.15,-28.31,-30.27,0,*43
1508245216.33,23071,19.88,74820.8,20.15,-30.27,-32.39,0,*41
1508245217.55,23072,19.88,74824.3,20.15,-29.23,-31.29,0,*4C
1508245218.8,23073,19.88,74822.0,20.13,-30.27,-32.29,0,*44
1508245220.05,23074,19.88,74822.0,20.11,-30.89,-32.79,0,*40
1508245221.33,23075,19.88,74820.0,20.09,-30.73,-32.79,0,*4D
1508245222.54,23076,19.88,74822.0,20.07,-31.33,-33.37,0,*4E
1508245223.77,23077,19.88,74822.8,20.07,-30.55,-32.51,0,*4F
1508245225.02,23078,19.88,74820.3,20.03,-30.73,-32.79,0,*4A
1508245226.27,23079,19.88,74822.0,20.03,-30.55,-32.63,0,*44
1508245227.47,23080,19.88,74818.0,20.03,-31.17,-33.03,0,*42
1508245228.7,23081,19.88,74820.3,20.01,-31.79,-34.13,0,*4F
1508245229.96,23082,19.88,74818.5,19.95,-31.11,-33.27,0,*45
1508245231.21,23083,19.88,74818.3,19.93,-31.33,-33.31,0,*45
1508245232.42,23084,19.88,74820.8,19.91,-31.17,-33.37,0,*40
1508245233.64,23085,19.88,74820.5,19.89,-30.33,-32.35,0,*4C
1508245234.89,23086,19.88,74820.5,19.89,-30.95,-33.21,0,*47
1508245236.18,23087,19.88,74818.8,19.89,-30.89,-32.85,0,*44
1508245237.44,23088,19.88,74820.5,19.87,-28.63,-30.73,0,*43
1508245238.69,23089,19.88,74818.0,19.87,-29.89,-31.85,0,*4F
1508245239.92,23090,19.88,74822.0,19.87,-30.33,-32.45,0,*41
1508245241.18,23091,19.88,74818.5,19.85,-29.35,-31.45,0,*4F
1508245242.4,23092,19.88,74820.0,19.87,-30.33,-32.29,0,*49
1508245243.64,23093,19.88,74818.8,19.85,-29.45,-31.45,0,*4A
1508245244.9,23094,19.88,74820.8,19.85,-29.57,-31.51,0,*4B
1508245246.13,23095,19.88,74822.0,19.85,-28.53,-30.67,0,*4B
1508245247.39,23096,19.88,74816.8,19.83,-29.51,-31.57,0,*4F
1508245248.63,23097,19.88,74818.3,19.81,-29.45,-31.45,0,*4A
1508245249.89,23098,19.88,74816.5,19.83,-29.39,-31.51,0,*49
1508245251.12,23099,19.88,74816.8,19.81,-31.05,-33.21,0,*49
1508245252.37,23100,19.88,74818.3,19.81,-32.13,-34.31,0,*4A
1508245253.65,23101,19.88,74820.0,19.77,-31.91,-34.01,0,*48
1508245254.87,23102,19.88,74820.0,19.71,-32.29,-34.41,0,*49
1508245256.1,23103,19.88,74818.5,19.71,-29.83,-31.95,0,*4E
1508245257.3,23104,19.88,74816.8,19.71,-31.01,-33.15,0,*40
1508245258.58,23105,19.88,74816.0,19.69,-31.57,-33.61,0,*48
1508245259.84,23106,19.88,74818.5,19.67,-31.95,-34.01,0,*4A
1508245261.13,23107,19.88,74818.5,19.65,-30.95,-33.27,0,*4B
1508245262.38,23108,19.88,74818.5,19.63,-32.79,-35.17,0,*47
1508245263.61,23109,19.88,74814.0,19.59,-34.13,-36.55,0,*40
1508245264.86,23110,19.88,74816.0,19.57,-34.19,-36.61,0,*4B
1508245266.12,23111,19.88,74814.5,19.53,-33.73,-36.13,0,*40
1508245267.36,23112,19.88,74822.3,19.47,-33.37,-35.77,0,*47
1508245268.61,23113,19.88,74818.0,19.45,-33.49,-35.65,0,*4E
1508245269.84,23114,19.88,74818.3,19.41,-31.45,-33.61,0,*41
1508245271.05,23115,19.88,74816.5,19.41,-32.13,-34.07,0,*47
1508245272.28,23116,19.88,74818.0,19.41,-29.29,-31.29,0,*4E
1508245273.54,23117,19.88,74816.8,19.41,-29.51,-31.57,0,*49
1508245274.78,23118,19.88,74816.0,19.43,-27.67,-29.57,0,*46
1508245276.01,23119,19.88,74816.5,19.41,-27.29,-29.17,0,*4B
1508245277.24,23120,19.88,74818.8,19.45,-26.93,-29.07,0,*44
1508245278.46,23121,19.88,74818.3,19.45,-27.35,-29.45,0,*4E
1508245279.7,23122,19.88,74816.3,19.49,-26.93,-28.85,0,*41
1508245280.96,23123,19.88,74816.5,19.49,-26.81,-28.79,0,*40
1508245282.2,23124,19.88,74816.5,19.53,-26.77,-28.79,0,*45
1508245283.43,23125,19.88,74818.8,19.53,-26.71,-28.69,0,*43
1508245284.71,23126,19.88,74822.8,19.55,-26.33,-28.25,0,*48
1508245285.98,23127,19.88,74818.8,19.55,-26.55,-28.75,0,*4C
1508245287.23,23128,19.94,74820.3,19.57,-27.45,-29.39,0,*48
1508245288.5,23129,19.88,74820.3,19.59,-27.35,-29.35,0,*4C
1508245289.72,23130,19.88,74818.3,19.61,-27.13,-29.29,0,*46
1508245290.98,23131,19.88,74818.8,19.59,-27.29,-29.35,0,*48
1508245292.24,23132,19.88,74818.8,19.63,-26.03,-28.21,0,*4F
1508245293.47,23133,19.88,74822.3,19.61,-26.13,-28.15,0,*4A
1508245294.75,23134,19.88,74822.3,19.63,-26.77,-28.63,0,*4C
1508245295.98,23135,19.88,74820.0,19.63,-27.19,-29.23,0,*41
1508245297.24,23136,19.88,74816.3,19.65,-27.89,-30.05,0,*41
1508245298.48,23137,19.88,74818.0,19.63,-27.35,-29.45,0,*4D
1508245299.76,23138,19.88,74818.0,19.65,-27.99,-30.51,0,*4F
1508245301.04,23139,19.88,74816.5,19.65,-28.47,-30.39,0,*4C
1508245302.27,23140,19.88,74818.3,19.63,-28.97,-31.17,0,*44
1508245303.5,23141,19.88,74816.5,19.63,-29.07,-31.17,0,*4D
1508245304.75,23142,19.88,74818.8,19.63,-29.45,-31.57,0,*4C
1508245306.03,23143,19.88,74818.0,19.63,-28.63,-30.77,0,*4B
1508245307.31,23144,19.94,74820.3,19.59,-29.35,-31.51,0,*42
1508245308.54,23145,19.94,74820.5,19.59,-29.23,-31.29,0,*4B
1508245309.79,23146,19.88,74816.8,19.59,-28.05,-29.95,0,*43
1508245311.07,23147,19.88,74820.3,19.59,-26.81,-28.91,0,*45
1508245312.3,23148,19.88,74816.8,19.61,-26.23,-28.25,0,*46
1508245313.57,23149,19.94,74822.5,19.63,-26.71,-28.91,0,*4D
1508245314.81,23150,19.88,74820.0,19.63,-26.93,-28.97,0,*4F
1508245316.04,23151,19.94,74818.0,19.63,-27.55,-29.57,0,*48
1508245317.31,23152,19.88,74818.8,19.63,-27.39,-29.39,0,*49
1508245318.53,23153,19.88,74818.3,19.63,-27.55,-29.57,0,*4A
1508245319.76,23154,19.94,74822.0,19.65,-26.87,-28.85,0,*4B
1508245321.03,23155,19.88,74816.5,19.65,-26.65,-28.59,0,*47
1508245322.26,23156,19.88,74818.0,19.63,-26.03,-27.93,0,*4B
1508245323.47,23157,19.88,74816.0,19.67,-26.65,-28.69,0,*44
1508245324.73,23158,19.94,74820.8,19.69,-26.49,-28.63,0,*41
1508245325.96,23159,19.94,74818.5,19.67,-25.87,-27.99,0,*45
1508245327.21,23160,19.94,74820.5,19.69,-25.75,-27.93,0,*46
1508245328.44,23161,19.88,74818.5,19.71,-25.75,-27.89,0,*45
1508245329.68,23162,19.88,74816.3,19.71,-25.71,-27.71,0,*45
1508245330.91,23163,19.94,74816.5,19.75,-25.55,-27.55,0,*40
1508245332.16,23164,19.94,74818.8,19.77,-25.71,-27.71,0,*45
1508245333.41,23165,19.88,74814.3,19.77,-25.81,-27.89,0,*4C
1508245334.61,23166,19.94,74816.0,19.79,-25.61,-27.77,0,*4E
1508245335.8,23167,19.94,74818.8,19.79,-25.91,-27.93,0,*4A
1508245337.06,23168,19.88,74818.0,19.81,-25.97,-27.93,0,*44
1508245338.34,23169,19.94,74816.3,19.81,-25.81,-27.83,0,*43
1508245339.59,23170,19.94,74820.3,19.81,-25.45,-27.51,0,*4C
1508245340.82,23171,19.94,74816.3,19.83,-25.91,-28.05,0,*48
1508245342.05,23172,19.94,74816.8,19.83,-25.75,-27.89,0,*4A
1508245343.3,23173,19.94,74816.3,19.85,-25.55,-27.71,0,*48
1508245344.58,23174,19.94,74816.3,19.85,-26.81,-29.01,0,*4C
1508245345.83,23175,19.88,74814.5,19.85,-27.55,-29.73,0,*40
1508245347.08,23176,19.94,74816.0,19.87,-26.93,-29.01,0,*4F
1508245348.32,23177,19.94,74816.3,19.85,-26.03,-28.15,0,*41
1508245349.54,23178,19.94,74818.5,19.87,-25.35,-27.61,0,*46
1508245350.76,23179,19.94,74818.5,19.87,-25.81,-27.93,0,*45
1508245351.99,23180,19.94,74816.3,19.87,-25.65,-27.83,0,*48
1508245353.22,23181,19.94,74818.5,19.87,-26.29,-28.37,0,*42
1508245354.47,23182,19.94,74816.3,19.87,-26.33,-28.47,0,*4D
1508245355.7,23183,19.94,74818.3,19.89,-27.77,-29.83,0,*4A
1508245356.92,23184,19.94,74818.8,19.87,-27.13,-29.29,0,*41
1508245358.13,23185,19.94,74816.5,19.87,-26.49,-28.37,0,*40
1508245359.35,23186,19.88,74812.0,19.87,-27.07,-29.17,0,*4B
1508245360.58,23187,19.94,74818.0,19.87,-26.93,-28.97,0,*4F
1508245361.79,23188,19.94,74818.3,19.87,-27.13,-29.29,0,*4D
1508245363.04,23189,19.94,74818.0,19.87,-27.35,-29.39,0,*49
1508245364.27,23190,19.94,74816.3,19.87,-28.79,-31.05,0,*40
1508245365.52,23191,19.94,74816.8,19.85,-28.53,-30.51,0,*4B
1508245366.74,23192,19.94,74816.8,19.85,-27.13,-29.07,0,*48
1508245368.01,23193,19.94,74814.0,19.85,-26.81,-28.75,0,*47
1508245369.24,23194,19.94,74818.0,19.85,-26.39,-28.37,0,*45
1508245370.47,23195,19.94,74818.5,19.87,-26.93,-28.97,0,*4C
1508245371.72,23196,19.94,74818.0,19.85,-26.49,-28.59,0,*48
1508245372.98,23197,19.94,74818.0,19.85,-27.19,-29.17,0,*46
1508245374.22,23198,19.94,74816.0,19.87,-26.29,-28.31,0,*4C
1508245375.42,23199,19.94,74818.5,19.87,-25.65,-27.67,0,*4A
1508245376.65,23200,19.94,74818.8,19.87,-26.17,-28.31,0,*43
1508245377.87,23201,19.94,74820.0,19.85,-27.13,-29.07,0,*41
1508245379.07,23202,19.94,74816.3,19.87,-27.07,-28.97,0,*4D
1508245380.3,23203,19.94,74816.8,19.87,-26.61,-28.63,0,*46
1508245381.56,23204,19.94,74814.3,19.87,-26.77,-28.63,0,*46
1508245382.79,23205,19.94,74816.3,19.87,-27.07,-29.13,0,*47
1508245383.99,23206,19.94,74814.0,19.87,-26.49,-28.37,0,*48
1508245385.19,23207,19.94,74818.0,19.87,-25.65,-27.67,0,*4E
1508245386.47,23208,19.94,74816.3,19.89,-25.29,-27.35,0,*40
1508245387.7,23209,19.94,74814.0,19.91,-26.45,-28.47,0,*4B
1508245388.9,23210,19.94,74816.3,19.91,-25.91,-27.89,0,*44
1508245390.15,23211,19.94,74816.0,19.91,-25.75,-27.83,0,*45
1508245391.38,23212,19.94,74818.3,19.89,-25.65,-27.67,0,*44
1508245392.58,23213,19.94,74818.0,19.91,-25.61,-27.55,0,*49
1508245393.78,23214,19.94,74814.3,19.91,-25.39,-27.55,0,*43
1508245394.98,23215,19.94,74818.8,19.95,-25.49,-27.51,0,*45
1508245396.24,23216,19.94,74816.5,19.93,-25.87,-27.83,0,*4D
1508245397.47,23217,19.94,74818.5,19.95,-25.97,-27.89,0,*41
1508245398.67,23218,19.94,74818.3,19.95,-26.49,-28.37,0,*44
1508245399.91,23219,19.94,74816.8,19.95,-27.23,-29.17,0,*4B
1508245401.16,23220,19.94,74814.0,19.95,-27.39,-29.29,0,*47
1508245402.42,23221,19.94,74818.3,19.93,-26.07,-28.05,0,*43
1508245403.67,23222,19.94,74818.8,19.93,-25.81,-27.71,0,*41
1508245404.89,23223,19.94,74812.8,19.99,-26.13,-27.93,0,*4E
1508245406.1,23224,19.94,74818.0,19.99,-25.65,-27.67,0,*40
1508245407.36,23225,19.94,74818.3,19.99,-25.75,-27.61,0,*46
1508245408.59,23226,19.94,74818.0,19.99,-25.49,-27.45,0,*4C
1508245409.83,23227,19.94,74816.0,19.99,-25.45,-27.45,0,*41
1508245411.06,23228,19.94,74818.0,20.01,-26.23,-28.15,0,*4C
1508245412.32,23229,19.94,74816.5,20.01,-26.29,-28.31,0,*41
1508245413.59,23230,19.94,74816.5,19.99,-26.77,-28.63,0,*4E
1508245414.83,23231,19.94,74818.3,19.99,-27.19,-29.13,0,*40
1508245416.1,23232,19.94,74816.8,20.01,-27.23,-29.13,0,*41
1508245417.33,23233,19.94,74816.8,19.99,-26.49,-28.47,0,*46
1508245418.59,23234,19.94,74818.0,19.99,-26.29,-28.21,0,*47
1508245419.87,23235,19.94,74814.3,20.01,-26.77,-28.79,0,*4B
1508245421.14,23236,19.94,74816.3,20.01,-26.77,-28.75,0,*44
1508245422.4,23237,19.94,74816.5,20.01,-26.07,-27.99,0,*4F
1508245423.64,23238,19.94,74814.0,19.99,-26.03,-28.05,0,*45
1508245424.9,23239,19.94,74816.5,20.01,-25.71,-27.71,0,*45
1508245426.16,23240,19.94,74818.5,20.01,-25.29,-27.29,0,*4B
1508245427.41,23241,19.94,74818.0,20.01,-26.07,-28.09,0,*48
1508245428.66,23242,19.94,74816.5,20.03,-26.55,-28.43,0,*40
1508245429.88,23243,19.94,74818.8,20.03,-26.23,-28.25,0,*40
1508245431.14,23244,19.94,74814.8,20.03,-25.97,-27.99,0,*43
1508245432.37,23245,19.94,74816.5,20.03,-26.07,-27.99,0,*48
1508245433.6,23246,19.94,74818.5,20.05,-25.91,-27.89,0,*40
1508245434.8,23247,19.94,74818.5,20.03,-25.87,-27.71,0,*47
1508245436.03,23248,19.94,74816.8,20.05,-26.39,-28.37,0,*45
1508245437.26,23249,19.94,74816.3,20.05,-26.87,-28.85,0,*48
1508245438.49,23250,19.94,74814.3,20.03,-26.39,-28.25,0,*49
1508245439.78,23251,19.94,74814.8,20.05,-25.55,-27.39,0,*45
1508245441.01,23252,19.94,74816.8,20.05,-25.65,-27.55,0,*4F
1508245442.23,23253,19.94,74816.3,20.05,-25.65,-27.55,0,*4E
1508245443.49,23254,19.94,74812.3,20.05,-25.81,-27.51,0,*47
1508245444.74,23255,19.94,74814.8,20.05,-25.71,-27.51,0,*49
1508245445.97,23256,19.94,74816.3,20.07,-25.81,-27.77,0,*43
1508245447.22,23257,19.94,74814.5,20.09,-25.81,-27.77,0,*4C
1508245448.47,23258,19.94,74816.8,20.07,-25.81,-27.61,0,*4A
1508245449.7,23259,19.94,74818.0,20.09,-26.07,-27.93,0,*45
1508245450.92,23260,19.94,74814.5,20.11,-26.45,-28.43,0,*42
1508245452.2,23261,19.94,74812.5,20.09,-26.13,-28.09,0,*47
1508245453.45,23262,19.94,74816.0,20.09,-26.55,-28.31,0,*4D
1508245454.73,23263,19.94,74820.5,20.09,-25.55,-27.39,0,*48
1508245455.98,23264,19.94,74818.3,20.09,-25.23,-27.23,0,*45
1508245457.2,23265,19.94,74816.3,20.11,-25.23,-27.23,0,*4D
1508245458.4,23266,19.94,74818.0,20.11,-25.13,-27.07,0,*4B
1508245459.66,23267,19.94,74816.8,20.13,-27.03,-28.91,0,*4B
1508245460.88,23268,19.94,74816.8,20.11,-27.83,-29.79,0,*49
1508245462.1,23269,19.94,74818.3,20.11,-26.23,-28.09,0,*45
1508245463.34,23270,19.94,74816.0,20.09,-27.83,-29.79,0,*49
1508245464.56,23271,19.94,74816.5,20.11,-27.23,-28.97,0,*4A
1508245465.82,23272,19.94,74812.5,20.11,-26.55,-28.25,0,*40
1508245467.04,23273,19.94,74814.3,20.11,-25.81,-27.77,0,*43
1508245468.3,23274,19.94,74816.5,20.11,-25.55,-27.39,0,*47
1508245469.56,23275,19.94,74814.3,20.11,-25.71,-27.61,0,*4D
1508245470.79,23276,19.94,74816.0,20.13,-25.49,-27.51,0,*44
1508245472.04,23277,19.94,74814.8,20.13,-25.75,-27.71,0,*48
1508245473.29,23278,19.94,74816.0,20.13,-25.23,-27.19,0,*4A
1508245474.57,23279,19.94,74816.5,20.13,-25.55,-27.39,0,*48
1508245475.8,23280,19.94,74818.5,20.15,-25.29,-27.13,0,*4B
1508245477.01,23281,19.94,74814.8,20.15,-25.87,-27.89,0,*4D
1508245478.27,23282,19.94,74814.3,20.15,-26.13,-27.99,0,*41
1508245479.54,23283,19.94,74816.0,20.15,-26.13,-27.99,0,*40
1508245480.8,23284,19.94,74816.0,20.17,-25.71,-27.67,0,*43
1508245482.08,23285,19.94,74818.3,20.17,-26.29,-28.21,0,*41
1508245483.29,23286,19.94,74816.5,20.15,-25.65,-27.67,0,*46
1508245484.55,23287,19.94,74818.0,20.17,-26.65,-28.63,0,*4D
1508245485.79,23288,19.94,74818.0,20.15,-26.87,-28.63,0,*4C
1508245487.05,23289,19.94,74818.8,20.15,-25.97,-27.83,0,*4E
1508245488.3,23290,19.94,74816.5,20.17,-25.97,-27.89,0,*4E
1508245489.51,23291,19.94,74818.3,20.15,-25.87,-27.71,0,*4B
1508245490.8,23292,19.94,74816.3,20.17,-25.71,-27.61,0,*42
1508245492.03,23293,19.94,74818.0,20.17,-25.65,-27.51,0,*45
1508245493.28,23294,20.0,74816.3,20.17,-26.61,-28.47,0,*4D
1508245494.5,23295,19.94,74814.3,20.17,-26.87,-28.69,0,*48
1508245495.76,23296,19.94,74816.5,20.17,-26.29,-28.15,0,*44
1508245497.04,23297,19.94,74812.5,20.17,-25.97,-27.83,0,*43
1508245498.3,23298,20.0,74818.5,20.17,-25.61,-27.35,0,*48
1508245499.57,23299,19.94,74814.8,20.21,-25.55,-27.23,0,*4C
1508245500.8,23300,19.94,74814.3,20.23,-25.23,-27.23,0,*4E
1508245502.02,23301,20.0,74816.5,20.23,-25.35,-27.23,0,*48
1508245503.24,23302,20.0,74816.3,20.23,-26.55,-28.37,0,*44
1508245504.49,23303,20.0,74818.5,20.23,-27.23,-29.13,0,*42
1508245505.69,23304,19.94,74812.0,20.23,-27.55,-29.57,0,*44
1508245506.98,23305,19.94,74814.3,20.21,-26.81,-28.63,0,*49
1508245508.25,23306,20.0,74816.3,20.21,-26.97,-28.79,0,*46
1508245509.48,23307,19.94,74814.8,20.21,-26.07,-27.93,0,*45
1508245510.73,23308,19.94,74812.8,20.21,-25.61,-27.39,0,*49
1508245511.97,23309,20.0,74816.8,20.21,-25.75,-27.77,0,*47
1508245513.25,23310,19.94,74814.8,20.21,-26.13,-27.99,0,*4C
1508245514.46,23311,20.0,74816.8,20.23,-25.87,-27.71,0,*47
1508245515.69,23312,20.0,74814.5,20.23,-25.71,-27.51,0,*4F
1508245516.92,23313,20.0,74814.5,20.23,-25.75,-27.51,0,*4A
1508245518.14,23314,20.0,74818.5,20.23,-25.39,-27.23,0,*40
1508245519.37,23315,20.0,74816.0,20.25,-25.61,-27.55,0,*4B
1508245520.62,23316,20.0,74816.8,20.25,-25.55,-27.51,0,*4B
1508245521.84,23317,20.0,74816.3,20.25,-25.91,-27.71,0,*40
1508245523.06,23318,19.94,74814.8,20.27,-25.29,-27.13,0,*4A
1508245524.27,23319,19.94,74814.3,20.27,-25.35,-27.29,0,*4F
1508245525.51,23320,20.0,74816.3,20.27,-25.29,-27.19,0,*4B
1508245526.74,23321,19.94,74812.3,20.27,-25.29,-27.29,0,*49
1508245527.99,23322,20.0,74814.5,20.27,-25.03,-26.97,0,*46
1508245529.21,23323,20.0,74816.0,20.29,-24.93,-26.93,0,*45
1508245530.45,23324,20.0,74814.8,20.29,-25.71,-27.51,0,*40
1508245531.73,23325,20.0,74816.0,20.31,-25.71,-27.45,0,*4D
1508245533.01,23326,19.94,74814.0,20.31,-25.45,-27.35,0,*4E
1508245534.27,23327,20.0,74814.0,20.31,-26.23,-28.05,0,*40
1508245535.5,23328,20.0,74814.5,20.29,-25.81,-27.67,0,*46
1508245536.72,23329,19.94,74812.3,20.33,-25.35,-27.19,0,*4A
1508245537.97,23330,20.0,74816.0,20.33,-25.45,-27.39,0,*47
1508245539.23,23331,20.0,74818.0,20.35,-25.19,-26.97,0,*4C
1508245540.46,23332,20.0,74812.5,20.35,-25.39,-27.29,0,*49
1508245541.72,23333,20.0,74816.3,20.35,-25.81,-27.71,0,*46
1508245542.98,23334,20.0,74816.8,20.35,-25.71,-27.71,0,*4E
1508245544.23,23335,19.94,74812.5,20.35,-25.65,-27.39,0,*46
1508245545.49,23336,20.0,74814.5,20.35,-25.29,-27.29,0,*4C
1508245546.75,23337,20.0,74812.5,20.35,-25.55,-27.55,0,*4D
1508245547.98,23338,20.0,74818.5,20.35,-25.87,-27.67,0,*4C
1508245549.27,23339,20.0,74812.8,20.35,-26.17,-28.05,0,*4C
1508245550.51,23340,20.0,74816.3,20.35,-26.03,-27.71,0,*4B
1508245551.76,23341,20.0,74814.0,20.35,-25.65,-27.39,0,*45
1508245553.02,23342,20.0,74814.8,20.35,-25.49,-27.35,0,*44
1508245554.25,23343,20.0,74812.0,20.37,-25.23,-27.23,0,*4C
1508245555.5,23344,20.0,74814.3,20.39,-24.97,-26.93,0,*41
1508245556.72,23345,20.0,74812.0,20.39,-24.97,-27.07,0,*4C
1508245557.95,23346,20.0,74814.3,20.43,-24.61,-26.61,0,*4A
1508245559.2,23347,20.0,74814.8,20.43,-24.93,-26.93,0,*4B
1508245560.42,23348,20.0,74814.0,20.43,-25.09,-27.07,0,*4A
1508245561.65,23349,20.0,74814.5,20.43,-25.39,-27.29,0,*44
1508245562.87,23350,20.0,74814.0,20.45,-25.03,-26.87,0,*46
1508245564.13,23351,20.0,74814.8,20.45,-24.83,-26.71,0,*47
1508245565.36,23352,20.0,74812.0,20.45,-24.71,-26.65,0,*4C
1508245566.64,23353,20.0,74814.3,20.47,-24.87,-26.81,0,*4C
1508245567.87,23354,20.0,74812.5,20.49,-25.13,-26.93,0,*4A
1508245569.1,23355,20.0,74814.0,20.49,-24.83,-26.65,0,*4A
1508245570.32,23356,20.0,74812.3,20.49,-25.09,-26.93,0,*43
1508245571.54,23357,20.0,74814.8,20.49,-25.13,-26.93,0,*49
1508245572.81,23358,20.0,74816.5,20.51,-25.45,-27.39,0,*4D
1508245574.06,23359,20.0,74814.3,20.51,-26.07,-28.05,0,*49
1508245575.31,23360,20.0,74814.8,20.51,-27.29,-29.13,0,*48
1508245576.58,23361,20.0,74812.3,20.51,-25.75,-27.61,0,*49
1508245577.84,23362,20.0,74814.8,20.51,-26.61,-28.63,0,*41
1508245579.07,23363,20.0,74814.3,20.51,-26.45,-28.31,0,*41
1508245580.32,23364,20.0,74814.3,20.47,-26.55,-28.53,0,*44
1508245581.57,23365,20.0,74814.0,20.49,-26.81,-28.79,0,*4A
1508245582.81,23366,20.0,74812.5,20.47,-26.49,-28.31,0,*4F
1508245584.06,23367,20.0,74816.0,20.47,-27.67,-29.73,0,*44
1508245585.29,23368,20.0,74814.0,20.49,-26.93,-28.85,0,*47
1508245586.54,23369,20.0,74816.5,20.47,-27.35,-29.23,0,*48
1508245587.77,23370,20.0,74812.3,20.47,-26.39,-28.31,0,*4F
1508245589.01,23371,20.0,74818.0,20.47,-26.49,-28.31,0,*49
1508245590.26,23372,20.0,74808.3,20.47,-26.39,-28.43,0,*48
1508245591.55,23373,20.0,74812.8,20.47,-26.71,-28.25,0,*45
1508245592.8,23374,20.0,74814.5,20.47,-25.39,-27.23,0,*44
1508245594.03,23375,20.0,74812.3,20.47,-25.87,-27.55,0,*41
1508245595.27,23376,20.0,74814.0,20.49,-25.45,-27.19,0,*4A
1508245596.53,23377,20.0,74812.0,20.47,-25.49,-27.39,0,*4B
1508245597.75,23378,20.0,74816.8,20.49,-25.45,-27.29,0,*47
1508245599.02,23379,20.0,74814.8,20.47,-25.55,-27.29,0,*49
1508245600.22,23380,20.0,74814.3,20.49,-25.35,-27.29,0,*47
1508245601.45,23381,20.0,74812.5,20.51,-26.39,-28.31,0,*46
1508245602.67,23382,20.0,74814.0,20.53,-26.45,-28.25,0,*49
1508245603.95,23383,20.0,74812.8,20.51,-25.55,-27.39,0,*4A
1508245605.18,23384,20.0,74814.5,20.51,-25.61,-27.55,0,*40
1508245606.4,23385,20.0,74812.8,20.53,-25.75,-27.55,0,*46
1508245607.62,23386,20.0,74812.3,20.53,-25.39,-27.23,0,*4C
1508245608.85,23387,20.0,74812.0,20.53,-25.61,-27.45,0,*40
1508245610.07,23388,20.0,74812.8,20.51,-25.61,-27.55,0,*4C
1508245611.32,23389,20.0,74814.3,20.55,-25.81,-27.67,0,*46
1508245612.56,23390,20.0,74812.8,20.55,-26.03,-27.89,0,*47
1508245613.84,23391,20.0,74814.0,20.55,-26.17,-27.99,0,*42
1508245615.1,23392,20.0,74812.3,20.55,-26.03,-27.83,0,*4F
1508245616.35,23393,20.0,74812.3,20.55,-25.71,-27.55,0,*43
1508245617.58,23394,20.0,74816.0,20.55,-25.39,-27.51,0,*4C
1508245618.83,23395,20.0,74812.0,20.55,-25.39,-27.35,0,*4F
1508245620.08,23396,20.0,74814.0,20.55,-25.87,-27.83,0,*44
1508245621.28,23397,20.0,74812.0,20.57,-25.91,-27.67,0,*4A
1508245622.48,23398,20.0,74814.0,20.57,-26.45,-28.37,0,*45
1508245623.71,23399,20.0,74814.5,20.55,-26.07,-27.89,0,*4A
1508245624.91,23400,20.0,74812.0,20.57,-25.91,-27.67,0,*43
1508245626.13,23401,20.0,74814.5,20.57,-25.45,-27.29,0,*41
1508245627.36,23402,20.0,74812.0,20.57,-25.35,-27.35,0,*48
1508245628.61,23403,20.0,74814.0,20.61,-25.97,-27.93,0,*48
1508245629.86,23404,20.0,74812.8,20.59,-26.61,-28.59,0,*47
1508245631.11,23405,20.0,74814.5,20.59,-27.89,-29.51,0,*48
1508245632.34,23406,20.0,74812.8,20.59,-27.77,-29.67,0,*4F
1508245633.55,23407,20.0,74814.5,20.57,-27.77,-29.57,0,*43
1508245634.8,23408,20.0,74814.5,20.55,-27.07,-28.91,0,*42
1508245636.06,23409,20.0,74814.3,20.55,-26.39,-28.21,0,*44
1508245637.29,23410,20.0,74812.8,20.57,-25.75,-27.67,0,*48
1508245638.57,23411,20.0,74814.3,20.55,-25.97,-27.83,0,*4D
1508245639.82,23412,20.0,74814.8,20.57,-26.17,-28.09,0,*4A
1508245641.07,23413,20.0,74814.5,20.55,-25.81,-27.67,0,*42
1508245642.27,23414,20.0,74810.3,20.57,-25.65,-27.51,0,*48
1508245643.49,23415,20.0,74812.8,20.57,-25.97,-27.93,0,*4A
1508245644.75,23416,20.0,74812.3,20.57,-26.97,-28.63,0,*4A
1508245646.01,23417,20.0,74810.5,20.57,-26.33,-28.21,0,*43
1508245647.24,23418,20.0,74814.5,20.57,-25.81,-27.51,0,*4E
1508245648.46,23419,20.0,74814.3,20.59,-25.61,-27.55,0,*4B
1508245649.68,23420,20.0,74814.8,20.59,-25.91,-27.71,0,*48
1508245650.94,23421,20.0,74816.8,20.59,-27.45,-29.45,0,*4B
1508245652.19,23422,20.0,74814.0,20.61,-27.61,-29.23,0,*45
1508245653.42,23423,20.0,74810.3,20.57,-25.75,-27.67,0,*48
1508245654.64,23424,20.0,74812.3,20.57,-25.49,-27.45,0,*40
1508245655.89,23425,20.0,74814.3,20.59,-25.61,-27.45,0,*45
1508245657.14,23426,20.0,74814.5,20.61,-25.75,-27.55,0,*49
1508245658.36,23427,20.0,74812.5,20.61,-25.91,-27.77,0,*42
1508245659.63,23428,20.0,74814.5,20.59,-25.45,-27.23,0,*4E
1508245660.86,23429,20.0,74814.0,20.61,-25.91,-27.89,0,*4D
1508245662.11,23430,20.0,74810.3,20.61,-26.93,-28.97,0,*44
1508245663.38,23431,20.0,74816.0,20.61,-27.39,-29.29,0,*40
1508245664.66,23432,20.0,74812.5,20.61,-27.45,-29.35,0,*45
1508245665.91,23433,20.0,74812.0,20.59,-26.39,-28.09,0,*4B
1508245667.18,23434,20.06,74814.8,20.59,-25.75,-27.45,0,*40
1508245668.46,23435,20.0,74814.0,20.59,-25.55,-27.45,0,*43
1508245669.71,23436,20.0,74814.5,20.61,-25.87,-27.61,0,*42
1508245670.98,23437,20.0,74812.8,20.61,-25.45,-27.39,0,*40
1508245672.24,23438,20.0,74812.5,20.61,-25.61,-27.39,0,*49
1508245673.46,23439,20.0,74814.8,20.63,-25.39,-27.19,0,*45
1508245674.69,23440,20.0,74814.0,20.67,-25.81,-27.51,0,*40
1508245675.94,23441,20.0,74810.8,20.67,-25.45,-27.19,0,*45
1508245677.14,23442,20.0,74808.5,20.63,-25.65,-27.51,0,*4C
1508245678.4,23443,20.0,74812.3,20.67,-26.29,-28.05,0,*4C
1508245679.65,23444,20.0,74812.0,20.67,-27.45,-29.39,0,*4E
1508245680.89,23445,20.06,74816.5,20.63,-27.23,-29.13,0,*43
1508245682.13,23446,20.0,74812.0,20.63,-27.07,-28.91,0,*4D
1508245683.33,23447,20.06,74814.0,20.63,-25.91,-27.67,0,*47
1508245684.56,23448,20.0,74814.3,20.67,-25.81,-27.67,0,*4D
1508245685.79,23449,20.0,74814.8,20.67,-25.49,-27.35,0,*4F
1508245687.0,23450,20.0,74814.5,20.67,-25.61,-27.51,0,*4F
1508245688.2,23451,20.0,74812.3,20.67,-27.03,-28.97,0,*4D
1508245689.44,23452,20.0,74810.5,20.67,-27.19,-29.01,0,*4B
1508245690.7,23453,20.06,74814.8,20.63,-26.17,-27.99,0,*4E
1508245691.93,23454,20.0,74814.0,20.67,-27.51,-29.39,0,*4A
1508245693.12,23455,20.0,74812.3,20.63,-27.51,-29.23,0,*44
1508245694.38,23456,20.0,74810.3,20.63,-26.93,-28.91,0,*40
1508245695.59,23457,20.06,74814.8,20.63,-27.77,-29.67,0,*42
1508245696.79,23458,20.0,74814.3,20.63,-27.55,-29.45,0,*4D
1508245698.05,23459,20.06,74814.5,20.63,-26.93,-28.91,0,*4F
1508245699.28,23460,20.06,74814.5,20.63,-25.87,-27.83,0,*4F